Погода в Гулькевичи

Россия / Краснодарский край     45°21′37″N   40°41′42″E
темп.,
°C
ветер,
м/с
пор.,
м/с
влажн.,
%
обл.,
%
осадки,
мм/ч
давл.,
гПа
погр.,
м
13 апреля, вт
вт1300:00+8юз2293100 0.1 102350
03:00+8ююз2293100 0.1 102367
06:00+8з1297100 0.0 1022114
09:00+8зсз1289100 0.0 1023217
12:00+9сз0094100 2.8 1023149
15:00+9св119397 4.8 1023165
18:00+10ссв119098 0.0 1022196
21:00+8с1195100 0.0 102110
14 апреля, ср
ср1400:00+8с2396100 0.2 102067
03:00+8з2399100 4.9 1019129
06:00+8з3699100 2.4 1019242
09:00+8з3697100 2.8 1019297
12:00+9зсз3592100 0.1 1018302
15:00+13зсз347788 0.3 1018676
18:00+12зсз238122 0.1 1017128
21:00+9ю11850 0.1 101810
15 апреля, чт
чт1500:00+8ююз22885 0.0 101715
03:00+7ююв228975 0.0 101712
06:00+7ююв229018 0.0 101725
09:00+14ююв23705 0.0 1017409
12:00+18ююз24495 0.0 10161504
15:00+18з455299 0.0 10151764
18:00+14з377699 1.4 1016146
21:00
16 апреля, пт
пт1600:00+9юз34875 0.1 101762
03:00+7зюз229384 0.1 101728
06:00+8сз119598 0.0 101715
09:00+12св1179100 0.0 1017412
12:00+16ссз1162100 0.0 10171196
15:00+11сз7983100 0.6 1017632
18:00+9сз2594100 4.1 1019357
21:00+8юз2293100 0.2 1019245
17 апреля, сб
сб1700:00+8зюз1294100 0.2 1020106
03:00+8з129497 0.6 102092
06:00+7зюз12955 0.0 102145
09:00+11зсз117299 0.0 1021651
12:00+14зсз2356100 0.0 10211431
15:00+15зюз2254100 0.0 10201399
18:00+14ююз116944 0.1 102032
21:00+10ю228455 0.3 102136